Location: Lake Crest
(37.6062°N, 88.9176°W)
Time: 08:01:13
(UTC+00:00)

USA 234 - Pass Details

Date: 15 December 2019
Orbit: 1099 x 1108 km, 123.0° (Epoch: 16 January)

Event Time Altitude Azimuth Distance (km) Brightness Sun altitude
Rises 11:45:23 0° 40° (NE) 3,921 6.5 -14.9°
Reaches altitude 10° 11:48:03 10° 32° (NNE) 2,962 5.7 -14.4°
Maximum altitude 11:53:54 36° 329° (NNW) 1,667 3.8 -13.3°
Enters shadow 11:59:03 13° 268° (W) 2,730 4.8 -12.4°
